Location: Isola Pescaroli
(45.0500°N, 10.1667°E)
Time: 01:49:03
(UTC+00:00)

SL-4 R/B - Pass Details

Date: 21 June 2021
Orbit: 428 x 662 km, 51.6° (Epoch: 29 July)

Event Time Altitude Azimuth Distance (km) Brightness Sun altitude
Rises 01:13:54 0° 294° (WNW) 2,584 5.4 -16.8°
Reaches altitude 10° 01:16:19 10° 305° (NW) 1,660 4.6 -16.6°
Maximum altitude 01:19:41 32° 10° (N) 820 3.6 -16.4°
Drops below altitude 10° 01:22:53 10° 75° (ENE) 1,568 5.0 -16.1°
Sets 01:25:06 0° 86° (E) 2,416 5.8 -15.9°
